[[{"header":{"parameterUnit":"m.s-1","parameterCategory":2,"la1":30.2991,"la2":30.254,"lo1":-89.0895,"lo2":-89.0444,"dy":0.0017,"dx":0.0017,"nx":28,"ny":28,"refTime":"2023-10-31T03:00:00:Z","depth":"0","parameterNumber":2,"parameterNumberName":"U-component_of_CURRENTS"},"data":[0,0,0,0,0,0,0,0,0,0,0,0,0,0,0,0,0,0,0,0,0,0,0,0,0,0,0,0,0,0,0,0,0,0,0,0,0,0,0,0,0,0,0,0,0,0,0,0,0,0,0,0,0,0,0,0,0,0,-0.2973,-0.2974,0,-0.2998,-0.2998,-0.2998,-0.2972,-0.2971,-0.297,-0.297,-0.296,-0.296,-0.2961,0,0,0,0,0,0,0,0,0,0,0,0,0,-0.2887,-0.2889,-0.2973,-0.2974,-0.2975,-0.2998,-0.2998,-0.2998,-0.2972,-0.2971,-0.297,-0.2969,-0.296,-0.296,-0.2961,0,0,0,0,0,0,0,0,0,0,0,0,0,-0.2916,-0.289,-0.2973,-0.2967,-0.2967,-0.2998,-0.2998,-0.2998,-0.2972,-0.2971,-0.297,-0.2969,-0.296,-0.296,-0.2961,-0.2985,0,0,-0.2963,-0.2963,0,0,0,0,0,0,0,0,-0.2915,-0.2919,-0.2967,-0.2968,-0.2968,-0.2984,-0.2964,-0.2993,-0.2972,-0.2966,-0.297,-0.2968,-0.2968,-0.2968,-0.297,-0.2984,-0.2984,-0.2963,-0.2963,-0.2963,-0.2963,0,0,0,0,0,0,0,-0.2913,-0.2918,-0.2979,-0.2968,-0.2968,-0.2957,-0.296,-0.2969,-0.2969,-0.2967,-0.2966,-0.2974,-0.2967,-0.297,-0.297,-0.2984,-0.2963,-0.2963,-0.2964,-0.2964,-0.3021,-0.3022,0,0,0,0,0,0,-0.2919,-0.2916,-0.2979,-0.298,-0.2942,-0.296,-0.2963,-0.2977,-0.297,-0.2969,-0.2975,-0.2973,-0.2969,-0.2969,-0.2969,-0.3007,-0.2963,-0.2964,-0.2964,-0.302,-0.3021,-0.3022,0,0,0,0,0,0,-0.2917,-0.2925,-0.2978,-0.2951,-0.2957,-0.2963,-0.2978,-0.2978,-0.2979,-0.2977,-0.2975,-0.2978,-0.2968,-0.2968,-0.2983,-0.3006,-0.2964,-0.2965,-0.3018,-0.302,-0.3022,-0.3076,0,0,0,0,0,0,-0.2915,-0.2924,-0.2932,-0.2952,-0.2959,-0.3008,-0.298,-0.2979,-0.2988,-0.2985,-0.2979,-0.2977,-0.2967,-0.2982,-0.2984,-0.3006,-0.2965,-0.3017,-0.3019,-0.3021,-0.3072,-0.3079,-0.3085,0,0,0,0,0,-0.2912,-0.2933,-0.2932,-0.2939,-0.2971,-0.301,-0.3013,-0.301,-0.2989,-0.3004,-0.2993,-0.2977,-0.2997,-0.2984,-0.2985,-0.3008,-0.3016,-0.3018,-0.3021,-0.307,-0.3078,-0.3085,0,0,0,0,0,0,-0.2897,-0.2933,-0.2932,-0.2961,-0.2989,-0.3007,-0.3017,-0.3015,-0.3018,-0.3009,-0.2994,-0.2993,-0.3016,-0.3006,-0.2992,-0.3031,-0.3003,-0.3006,-0.304,-0.3048,-0.3054,-0.306,-0.2965,0,0,0,0,0,-0.29,-0.292,-0.2956,-0.2976,-0.2993,-0.3004,-0.3015,-0.3019,-0.3028,-0.3028,-0.3023,-0.3019,-0.303,-0.3032,-0.304,-0.3062,-0.3051,-0.3077,-0.3083,-0.3088,-0.3095,-0.3093,-0.31,-0.3031,-0.3031,-0.3031,0,0,-0.2896,-0.2919,-0.2928,-0.2974,-0.2988,-0.3026,-0.3007,-0.3035,-0.306,-0.3028,-0.3049,-0.3044,-0.3042,-0.3068,-0.3077,-0.3059,-0.3105,-0.3092,-0.3096,-0.31,-0.3097,-0.3103,-0.3109,-0.3033,-0.3032,-0.3032,0,0,-0.2907,-0.2925,-0.2949,-0.2982,-0.302,-0.3037,-0.3048,-0.3076,-0.3082,-0.3108,-0.3092,-0.31,-0.3111,-0.3118,-0.3121,-0.3167,-0.3141,-0.3167,-0.32,-0.3199,-0.3204,-0.3209,-0.3213,-0.3218,-0.3165,-0.3166,-0.3166,0,-0.2898,-0.2938,-0.2962,-0.3003,-0.3027,-0.3046,-0.3082,-0.3106,-0.3131,-0.3141,-0.3122,-0.3141,-0.3137,-0.3171,-0.3185,-0.3182,-0.3174,-0.3171,-0.3206,-0.3211,-0.3214,-0.3218,-0.3222,-0.3168,-0.3168,-0.3168,-0.3168,0,-0.2936,-0.2968,-0.2989,-0.3044,-0.3078,-0.3112,-0.3157,-0.3184,-0.3185,-0.3199,-0.3227,-0.3222,-0.3227,-0.3234,-0.3223,-0.3255,-0.324,-0.3217,-0.3186,-0.3224,-0.3226,-0.3229,-0.3173,-0.3172,-0.3171,-0.317,0,0,-0.2898,-0.2995,-0.2997,-0.3031,-0.3099,-0.3131,-0.3187,-0.3238,-0.327,-0.3283,-0.3313,-0.3327,-0.3309,-0.3312,-0.33,-0.3303,-0.3326,-0.3272,-0.3271,-0.3275,-0.3326,-0.3294,-0.3294,-0.3303,-0.3304,-0.3304,-0.3319,0,-0.2911,-0.2986,-0.3033,-0.3098,-0.3138,-0.3186,-0.3238,-0.3288,-0.3317,-0.3357,-0.3356,-0.3377,-0.3345,-0.3343,-0.3344,-0.3335,-0.3336,-0.3325,-0.329,-0.329,-0.3254,-0.3298,-0.3202,-0.3205,-0.3323,-0.3323,-0.3323,0,-0.2919,-0.2973,-0.3036,-0.3127,-0.3149,-0.319,-0.3267,-0.3321,-0.339,-0.3408,-0.3427,-0.3429,-0.3447,-0.3405,-0.3402,-0.3393,-0.3365,-0.3351,-0.3351,-0.3303,-0.3264,-0.3183,-0.3206,-0.3178,-0.3328,-0.3328,-0.3328,0,-0.2866,-0.2967,-0.3012,-0.3045,-0.3156,-0.3186,-0.3238,-0.3319,-0.3367,-0.3433,-0.3462,-0.348,-0.3485,-0.3461,-0.3431,-0.3415,-0.3425,-0.3393,-0.3341,-0.3338,-0.3242,-0.323,-0.3229,-0.3386,-0.3386,-0.3386,-0.3386,0,-0.2853,-0.2887,-0.2989,-0.3018,-0.3071,-0.3158,-0.3217,-0.3279,-0.3367,-0.3417,-0.3469,-0.3499,-0.3495,-0.3501,-0.3461,-0.3418,-0.3441,-0.3361,-0.3343,-0.326,-0.3249,-0.3207,-0.321,-0.3386,-0.3386,-0.3386,-0.3386,0,-0.278,-0.2853,-0.2907,-0.3015,-0.3046,-0.3077,-0.3188,-0.3231,-0.3333,-0.3401,-0.3419,-0.3511,-0.3525,-0.3525,-0.3503,-0.3451,-0.3362,-0.339,-0.33,-0.3271,-0.3188,-0.3197,-0.3161,-0.3066,-0.3339,-0.3338,-0.3338,0,-0.2748,-0.2768,-0.287,-0.2889,-0.293,-0.2998,-0.3038,-0.3174,-0.3229,-0.3393,-0.3412,-0.3488,-0.3521,-0.3513,-0.3446,-0.3395,-0.3338,-0.3261,-0.3211,-0.3185,-0.3183,-0.3165,-0.3084,-0.3109,-0.3106,-0.3105,-0.3103,0,-0.2663,-0.2692,-0.2729,-0.278,-0.2819,-0.2882,-0.296,-0.3007,-0.3167,-0.3251,-0.3359,-0.3417,-0.3464,-0.3406,-0.3363,-0.3292,-0.3185,-0.3219,-0.3207,-0.3024,-0.2989,-0.2886,-0.3111,-0.3086,-0.3087,-0.3089,-0.309,-0.309,-0.256,-0.2562,-0.2605,-0.2637,-0.2686,-0.2729,-0.2731,-0.2853,-0.294,-0.306,-0.3211,-0.3306,-0.3324,-0.327,-0.3217,-0.3079,-0.3076,-0.2969,-0.2991,-0.2981,-0.2865,-0.3064,-0.3009,-0.3011,-0.3012,-0.3013,-0.3014,0,-0.2425,-0.244,-0.246,-0.2492,-0.248,-0.2567,-0.2642,-0.2631,-0.2684,-0.2889,-0.2993,-0.3149,-0.3096,-0.3117,-0.3028,-0.2897,-0.2781,-0.2792,-0.2736,-0.2666,-0.285,-0.2814,-0.2696,-0.2696,-0.2696,-0.2696,-0.2696,-0.2696,-0.2349,-0.2314,-0.2333,-0.2266,-0.2284,-0.223,-0.2236,-0.2267,-0.2381,-0.254,-0.2745,-0.2956,-0.3001,-0.3145,-0.2982,-0.2816,-0.2693,-0.26,-0.2586,-0.273,-0.2748,-0.2765,-0.2731,-0.2598,-0.2598,-0.2307,-0.2305,-0.2304]},{"header":{"parameterUnit":"m.s-1","parameterCategory":2,"la1":30.2991,"la2":30.254,"lo1":-89.0895,"lo2":-89.0444,"dy":0.0017,"dx":0.0017,"nx":28,"ny":28,"refTime":"2023-10-31T03:00:00:Z","depth":"0","parameterNumber":3,"parameterNumberName":"V-component_of_CURRENTS"},"data":[0,0,0,0,0,0,0,0,0,0,0,0,0,0,0,0,0,0,0,0,0,0,0,0,0,0,0,0,0,0,0,0,0,0,0,0,0,0,0,0,0,0,0,0,0,0,0,0,0,0,0,0,0,0,0,0,0,0,-0.0388,-0.0387,0,-0.029,-0.0289,-0.0287,-0.0218,-0.0218,-0.0217,-0.0217,-0.0072,-0.0069,-0.0066,0,0,0,0,0,0,0,0,0,0,0,0,0,-0.0455,-0.0455,-0.0388,-0.0387,-0.0386,-0.029,-0.0289,-0.0287,-0.0218,-0.0218,-0.0217,-0.0217,-0.0074,-0.007,-0.0065,0,0,0,0,0,0,0,0,0,0,0,0,0,-0.0397,-0.0454,-0.0388,-0.0341,-0.0336,-0.029,-0.0289,-0.0287,-0.0218,-0.0218,-0.0217,-0.0217,-0.0075,-0.007,-0.0065,-0.0045,0,0,-0.0049,-0.0047,0,0,0,0,0,0,0,0,-0.0401,-0.0395,-0.0349,-0.0344,-0.0338,-0.0267,-0.0259,-0.0204,-0.0218,-0.0261,-0.0217,-0.0216,-0.0135,-0.0125,-0.0106,-0.0038,-0.0032,-0.0048,-0.0045,-0.0043,-0.0042,0,0,0,0,0,0,0,-0.0405,-0.0398,-0.0347,-0.0348,-0.0341,-0.0304,-0.0296,-0.0248,-0.02,-0.0257,-0.0253,-0.0244,-0.0131,-0.0111,-0.0102,-0.003,-0.0049,-0.0044,-0.0041,-0.0039,0.0075,0.0075,0,0,0,0,0,0,-0.0424,-0.0402,-0.035,-0.0345,-0.037,-0.0304,-0.0294,-0.0289,-0.0202,-0.0189,-0.0245,-0.0242,-0.012,-0.0108,-0.0096,-0.0064,-0.0043,-0.0038,-0.0035,0.0075,0.0075,0.0075,0,0,0,0,0,0,-0.0426,-0.042,-0.0354,-0.0372,-0.0361,-0.0304,-0.0298,-0.0288,-0.0267,-0.0193,-0.0179,-0.0236,-0.0119,-0.0104,-0.0057,-0.0058,-0.0036,-0.0031,0.0076,0.0075,0.0075,-0.0002,0,0,0,0,0,0,-0.0428,-0.0422,-0.0426,-0.0374,-0.0361,-0.0336,-0.0299,-0.0286,-0.0264,-0.0258,-0.0181,-0.0167,-0.0118,-0.0066,-0.0052,-0.0051,-0.0027,0.0076,0.0076,0.0075,0.0001,-0.0005,-0.0009,0,0,0,0,0,-0.0431,-0.0442,-0.0427,-0.0421,-0.0369,-0.0337,-0.0327,-0.0282,-0.0264,-0.026,-0.0207,-0.0169,-0.0057,-0.0062,-0.0046,-0.0043,0.0076,0.0076,0.0075,0.0003,-0.0004,-0.0009,0,0,0,0,0,0,-0.0472,-0.0434,-0.0417,-0.0415,-0.0383,-0.0326,-0.032,-0.029,-0.0245,-0.0239,-0.0169,-0.0151,-0.0111,-0.0068,-0.0075,-0.0011,0.0015,0.0018,-0.0045,-0.0051,-0.0056,-0.0069,-0.0023,0,0,0,0,0,-0.0485,-0.0485,-0.0439,-0.0439,-0.0427,-0.0375,-0.0357,-0.0328,-0.0282,-0.0262,-0.0208,-0.015,-0.01,-0.007,-0.0021,0.0014,0.0062,0.0026,0.0021,0.0017,0.0017,0.0085,0.0086,0.0075,0.0075,0.0075,0,0,-0.0501,-0.0482,-0.048,-0.0449,-0.042,-0.0409,-0.0363,-0.0343,-0.0329,-0.0253,-0.022,-0.0167,-0.0095,-0.0056,-0.0034,-0.0019,0.0044,0.0016,0.0012,0.0015,0.0085,0.0086,0.0087,0.0074,0.0074,0.0074,0,0,-0.054,-0.0516,-0.0531,-0.0508,-0.0475,-0.044,-0.0439,-0.0386,-0.0357,-0.0321,-0.0263,-0.0212,-0.0139,-0.0085,-0.0048,-0.0051,0.0012,-0.0038,-0.0069,-0.0003,-0.0001,0.0001,0.0054,0.0062,-0.0037,-0.0038,-0.0038,0,-0.0563,-0.0572,-0.053,-0.0536,-0.0524,-0.046,-0.0469,-0.0428,-0.0367,-0.0343,-0.0323,-0.0206,-0.0151,-0.0089,-0.0091,-0.0062,-0.0019,-0.0054,-0.001,-0.0007,-0.0004,0.0051,0.006,-0.0041,-0.0041,-0.0041,-0.004,0,-0.0611,-0.0614,-0.0621,-0.0607,-0.0586,-0.0584,-0.0526,-0.05,-0.0459,-0.0411,-0.0347,-0.0265,-0.0195,-0.0169,-0.013,-0.0078,-0.0054,-0.0028,0.0002,-0.0007,0.0051,0.0062,-0.0047,-0.0045,-0.0044,-0.0043,0,0,-0.0669,-0.066,-0.066,-0.0671,-0.0626,-0.0617,-0.059,-0.0546,-0.0529,-0.0453,-0.0418,-0.0325,-0.0273,-0.0229,-0.0164,-0.0105,-0.0049,-0.0065,-0.006,-0.0019,0.009,0.0152,0.017,-0.0016,-0.0015,-0.0013,0.0118,0,-0.0721,-0.0764,-0.073,-0.0754,-0.0771,-0.0703,-0.069,-0.0637,-0.0572,-0.052,-0.0414,-0.0357,-0.0296,-0.0265,-0.0194,-0.0081,-0.0023,-0.0088,0.0099,0.0105,0.0156,0.0185,0.0231,0.0356,0.0129,0.0131,0.0132,0,-0.0776,-0.0801,-0.0845,-0.0845,-0.0844,-0.0841,-0.0801,-0.0773,-0.0672,-0.0623,-0.0528,-0.0441,-0.033,-0.0287,-0.0092,-0.0136,-0.0036,0.0051,0.0059,0.0153,0.0188,0.0332,0.0385,0.0584,0.015,0.0148,0.0147,0,-0.0856,-0.0874,-0.0918,-0.0917,-0.0905,-0.0905,-0.0885,-0.0809,-0.0786,-0.0675,-0.0642,-0.0492,-0.0414,-0.0263,-0.0071,-0.0084,0.0143,0.015,0.0302,0.0307,0.0403,0.0414,0.0668,0.0276,0.0276,0.0276,0.0275,0,-0.0928,-0.0958,-0.0962,-0.0988,-0.1039,-0.0988,-0.1001,-0.0955,-0.088,-0.0851,-0.0699,-0.064,-0.0405,-0.0241,-0.0082,0.016,0.0143,0.0309,0.0354,0.0377,0.0383,0.0607,0.069,0.0281,0.0279,0.0279,0.0278,0,-0.1004,-0.1006,-0.1061,-0.1074,-0.1081,-0.1113,-0.1095,-0.1097,-0.1008,-0.096,-0.0929,-0.0735,-0.0508,-0.0263,0.0001,0.0152,0.0501,0.0445,0.0455,0.0498,0.0814,0.0889,0.119,0.1297,0.0632,0.0634,0.0636,0,-0.1049,-0.1088,-0.1138,-0.1183,-0.1192,-0.1223,-0.1248,-0.1178,-0.1164,-0.1019,-0.1005,-0.0772,-0.0599,-0.0168,0.0156,0.0479,0.0623,0.069,0.0679,0.086,0.0977,0.1027,0.1097,0.0772,0.0775,0.0778,0.078,0,-0.1132,-0.1146,-0.1194,-0.1297,-0.1343,-0.1387,-0.14,-0.1411,-0.1311,-0.1254,-0.1125,-0.0969,-0.0503,-0.0081,0.0369,0.0549,0.0858,0.075,0.095,0.1128,0.1189,0.1303,0.0644,0.0802,0.08,0.0798,0.0797,0.0796,-0.1183,-0.1245,-0.1312,-0.1405,-0.147,-0.1533,-0.157,-0.1563,-0.1545,-0.1437,-0.1237,-0.0979,-0.0295,0.0363,0.0606,0.1128,0.1061,0.1248,0.1328,0.1364,0.1472,0.0856,0.1054,0.1054,0.1053,0.1052,0.1052,0,-0.1249,-0.1317,-0.1416,-0.152,-0.1611,-0.1613,-0.1661,-0.1676,-0.1674,-0.1503,-0.1335,-0.0627,0.0031,0.0654,0.1446,0.1703,0.1743,0.1806,0.1895,0.194,0.1419,0.1429,0.1703,0.1702,0.1702,0.1702,0.1702,0.1701,-0.1285,-0.1393,-0.1449,-0.1616,-0.1689,-0.1784,-0.1813,-0.1821,-0.1716,-0.1439,-0.1071,-0.0755,0.0222,0.1542,0.2253,0.2273,0.2482,0.2446,0.2556,0.2202,0.2155,0.211,0.2142,0.2561,0.2562,0.3048,0.3053,0.3057]}],[{"header":{"parameterUnit":"m.s-1","parameterCategory":2,"la1":30.2991,"la2":30.254,"lo1":-89.0895,"lo2":-89.0444,"dy":0.0017,"dx":0.0017,"nx":28,"ny":28,"refTime":"2023-10-31T03:00:00:Z","depth":"2","parameterNumber":2,"parameterNumberName":"U-component_of_CURRENTS"},"data":[0,0,0,0,0,0,0,0,0,0,0,0,0,0,0,0,0,0,0,0,0,0,0,0,0,0,0,0,0,0,0,0,0,0,0,0,0,0,0,0,0,0,0,0,0,0,0,0,0,0,0,0,0,0,0,0,0,0,-0.2866,-0.2866,0,-0.2889,-0.2889,-0.2889,-0.2866,-0.2865,-0.2865,-0.2864,-0.2857,-0.2857,-0.2858,0,0,0,0,0,0,0,0,0,0,0,0,0,-0.2784,-0.2785,-0.2866,-0.2866,-0.2867,-0.2889,-0.2889,-0.2889,-0.2866,-0.2865,-0.2865,-0.2864,-0.2857,-0.2857,-0.2858,0,0,0,0,0,0,0,0,0,0,0,0,0,-0.2811,-0.2786,-0.2866,-0.2861,-0.2861,-0.2889,-0.2889,-0.2889,-0.2866,-0.2865,-0.2864,-0.2864,-0.2857,-0.2857,-0.2858,-0.2878,0,0,-0.2859,-0.286,0,0,0,0,0,0,0,0,-0.281,-0.2814,-0.2861,-0.2861,-0.2862,-0.2877,-0.2857,-0.2885,-0.2866,-0.2861,-0.2864,-0.2863,-0.2864,-0.2864,-0.2865,-0.2878,-0.2877,-0.2859,-0.286,-0.286,-0.286,0,0,0,0,0,0,0,-0.2808,-0.2813,-0.2871,-0.2862,-0.2862,-0.2852,-0.2854,-0.2862,-0.2863,-0.2861,-0.286,-0.2869,-0.2863,-0.2865,-0.2865,-0.2877,-0.2859,-0.286,-0.286,-0.286,-0.2916,-0.2917,0,0,0,0,0,0,-0.2814,-0.2811,-0.2871,-0.2872,-0.2837,-0.2854,-0.2857,-0.287,-0.2864,-0.2864,-0.2869,-0.2868,-0.2864,-0.2864,-0.2865,-0.2904,-0.286,-0.286,-0.2861,-0.2915,-0.2917,-0.2918,0,0,0,0,0,0,-0.2813,-0.282,-0.287,-0.2844,-0.285,-0.2857,-0.2871,-0.2871,-0.2874,-0.2871,-0.2869,-0.2874,-0.2864,-0.2864,-0.2879,-0.2903,-0.2861,-0.2861,-0.2914,-0.2916,-0.2917,-0.2973,0,0,0,0,0,0,-0.281,-0.2819,-0.2827,-0.2845,-0.2852,-0.29,-0.2872,-0.2872,-0.2882,-0.288,-0.2875,-0.2873,-0.2863,-0.2879,-0.288,-0.2903,-0.2861,-0.2912,-0.2914,-0.2917,-0.297,-0.2976,-0.2982,0,0,0,0,0,-0.2807,-0.2828,-0.2827,-0.2834,-0.2864,-0.2901,-0.2904,-0.2902,-0.2884,-0.2898,-0.2889,-0.2873,-0.2893,-0.288,-0.2881,-0.2905,-0.2911,-0.2914,-0.2916,-0.2967,-0.2975,-0.2982,0,0,0,0,0,0,-0.2795,-0.2828,-0.2828,-0.2856,-0.2882,-0.2899,-0.291,-0.2908,-0.2912,-0.2905,-0.289,-0.2889,-0.2913,-0.2902,-0.2888,-0.2928,-0.29,-0.2902,-0.2937,-0.2945,-0.2951,-0.2958,-0.2862,0,0,0,0,0,-0.2798,-0.2817,-0.2851,-0.2871,-0.2887,-0.2897,-0.2909,-0.2914,-0.2923,-0.2923,-0.2919,-0.2916,-0.2927,-0.2929,-0.2937,-0.2958,-0.2947,-0.2973,-0.298,-0.2985,-0.2992,-0.2991,-0.2997,-0.2927,-0.2927,-0.2926,0,0,-0.2794,-0.2817,-0.2825,-0.2869,-0.2882,-0.2919,-0.2901,-0.2929,-0.2954,-0.2923,-0.2946,-0.2941,-0.2938,-0.2964,-0.2973,-0.2956,-0.3002,-0.2989,-0.2993,-0.2997,-0.2994,-0.3001,-0.3007,-0.2928,-0.2928,-0.2928,0,0,-0.2806,-0.2823,-0.2847,-0.2878,-0.2916,-0.2932,-0.2944,-0.297,-0.2978,-0.3004,-0.2989,-0.2999,-0.3009,-0.3015,-0.3018,-0.3064,-0.3039,-0.3065,-0.3099,-0.3098,-0.3104,-0.3108,-0.3113,-0.3118,-0.3064,-0.3064,-0.3064,0,-0.2798,-0.2836,-0.286,-0.2899,-0.2923,-0.2941,-0.2976,-0.3,-0.3025,-0.3036,-0.3019,-0.3039,-0.3036,-0.3068,-0.3084,-0.3079,-0.3072,-0.307,-0.3106,-0.311,-0.3114,-0.3118,-0.3122,-0.3067,-0.3067,-0.3066,-0.3066,0,-0.2835,-0.2867,-0.2887,-0.294,-0.2972,-0.3006,-0.3049,-0.3078,-0.3081,-0.3095,-0.3124,-0.3119,-0.3125,-0.3132,-0.3122,-0.3155,-0.314,-0.3117,-0.3085,-0.3125,-0.3126,-0.313,-0.3071,-0.307,-0.3069,-0.3069,0,0,-0.2801,-0.2892,-0.2896,-0.2928,-0.2994,-0.3025,-0.308,-0.313,-0.3163,-0.3177,-0.3208,-0.3223,-0.3207,-0.321,-0.3199,-0.3203,-0.3228,-0.3173,-0.3172,-0.3176,-0.323,-0.3195,-0.3195,-0.3205,-0.3206,-0.3207,-0.3223,0,-0.2813,-0.2885,-0.293,-0.2993,-0.3032,-0.3079,-0.313,-0.3179,-0.3209,-0.325,-0.325,-0.3272,-0.3242,-0.3242,-0.3244,-0.3236,-0.3238,-0.3226,-0.3193,-0.3192,-0.3154,-0.3199,-0.2916,-0.2905,-0.3226,-0.3227,-0.3227,0,-0.2822,-0.2873,-0.2935,-0.3022,-0.3043,-0.3083,-0.3159,-0.3212,-0.3281,-0.33,-0.3321,-0.3324,-0.3344,-0.3304,-0.3303,-0.3294,-0.3268,-0.3255,-0.3254,-0.3204,-0.3164,-0.2915,-0.2899,-0.3233,-0.3232,-0.3232,-0.3232,0,-0.2771,-0.2868,-0.2912,-0.2944,-0.3051,-0.3081,-0.3132,-0.3212,-0.3259,-0.3327,-0.3355,-0.3376,-0.3382,-0.3361,-0.3333,-0.3317,-0.3329,-0.3297,-0.3244,-0.3241,-0.2986,-0.296,-0.3291,-0.3291,-0.3291,-0.3291,-0.3291,0,-0.2759,-0.2792,-0.2891,-0.2919,-0.2971,-0.3055,-0.3114,-0.3175,-0.3262,-0.331,-0.3364,-0.3394,-0.3394,-0.3401,-0.3363,-0.3321,-0.3345,-0.3264,-0.3246,-0.3,-0.2976,-0.3243,-0.3238,-0.3292,-0.3292,-0.3292,-0.3292,0,-0.2689,-0.276,-0.2812,-0.2917,-0.2947,-0.2979,-0.3088,-0.3129,-0.323,-0.3297,-0.3315,-0.3407,-0.3422,-0.3424,-0.3404,-0.3353,-0.332,-0.3293,-0.3017,-0.2967,-0.3228,-0.3225,-0.3243,-0.3242,-0.3241,-0.324,-0.3239,0,-0.2659,-0.2679,-0.2778,-0.2796,-0.2837,-0.2904,-0.2943,-0.3075,-0.3128,-0.3288,-0.3306,-0.3382,-0.3408,-0.3402,-0.3306,-0.3248,-0.331,-0.2969,-0.2892,-0.3243,-0.3224,-0.3223,-0.3221,-0.2572,-0.2566,-0.2561,-0.2557,0,-0.2577,-0.2606,-0.2642,-0.2692,-0.273,-0.279,-0.2865,-0.2909,-0.3064,-0.3142,-0.3245,-0.3297,-0.3312,-0.3141,-0.3087,-0.3001,-0.2961,-0.2871,-0.3281,-0.265,-0.2618,-0.2598,-0.2616,-0.2513,-0.2517,-0.252,-0.2523,-0.2525,-0.2478,-0.248,-0.2522,-0.2553,-0.26,-0.2639,-0.264,-0.2744,-0.2821,-0.2888,-0.3051,-0.3033,-0.3014,-0.2807,-0.2683,-0.2563,-0.276,-0.2603,-0.2614,-0.2631,-0.2573,-0.2543,-0.2413,-0.2417,-0.242,-0.2423,-0.2425,0,-0.2343,-0.2362,-0.2381,-0.2411,-0.2392,-0.2483,-0.2551,-0.2508,-0.2533,-0.2637,-0.2694,-0.2447,-0.2369,-0.2364,-0.2121,-0.2098,-0.2026,-0.2003,-0.1884,-0.1929,-0.1969,-0.1873,-0.1529,-0.1527,-0.1525,-0.1523,0,0,-0.2268,-0.2232,-0.2249,-0.2178,-0.2199,-0.2133,-0.2135,-0.2105,-0.213,-0.2075,-0.2068,-0.2246,-0.2314,-0.192,-0.1824,-0.1649,-0.177,-0.1566,-0.2279,-0.2183,-0.222,-0.2306,-0.2211,0,0,0,0,0]},{"header":{"parameterUnit":"m.s-1","parameterCategory":2,"la1":30.2991,"la2":30.254,"lo1":-89.0895,"lo2":-89.0444,"dy":0.0017,"dx":0.0017,"nx":28,"ny":28,"refTime":"2023-10-31T03:00:00:Z","depth":"2","parameterNumber":3,"parameterNumberName":"V-component_of_CURRENTS"},"data":[0,0,0,0,0,0,0,0,0,0,0,0,0,0,0,0,0,0,0,0,0,0,0,0,0,0,0,0,0,0,0,0,0,0,0,0,0,0,0,0,0,0,0,0,0,0,0,0,0,0,0,0,0,0,0,0,0,0,-0.0317,-0.0316,0,-0.0221,-0.022,-0.0219,-0.0152,-0.0152,-0.0151,-0.0151,-0.0009,-0.0006,-0.0003,0,0,0,0,0,0,0,0,0,0,0,0,0,-0.0382,-0.0381,-0.0317,-0.0316,-0.0315,-0.0221,-0.022,-0.0218,-0.0152,-0.0152,-0.0151,-0.0151,-0.001,-0.0006,-0.0002,0,0,0,0,0,0,0,0,0,0,0,0,0,-0.0325,-0.0381,-0.0317,-0.0272,-0.0267,-0.0222,-0.022,-0.0218,-0.0152,-0.0152,-0.0151,-0.0151,-0.0012,-0.0007,-0.0002,0.002,0,0,0.0014,0.0016,0,0,0,0,0,0,0,0,-0.0328,-0.0323,-0.0279,-0.0275,-0.0269,-0.0199,-0.0191,-0.0137,-0.0152,-0.0194,-0.0151,-0.015,-0.007,-0.006,-0.0041,0.0026,0.0032,0.0015,0.0018,0.002,0.0021,0,0,0,0,0,0,0,-0.0333,-0.0326,-0.0277,-0.0278,-0.0272,-0.0236,-0.0227,-0.018,-0.0134,-0.019,-0.0186,-0.0178,-0.0067,-0.0047,-0.0038,0.0034,0.0014,0.0019,0.0022,0.0024,0.0137,0.0137,0,0,0,0,0,0,-0.0352,-0.033,-0.028,-0.0275,-0.03,-0.0235,-0.0226,-0.0221,-0.0135,-0.0123,-0.0178,-0.0175,-0.0056,-0.0044,-0.0032,-0.0002,0.002,0.0025,0.0028,0.0137,0.0137,0.0137,0,0,0,0,0,0,-0.0353,-0.0348,-0.0284,-0.0301,-0.0291,-0.0235,-0.023,-0.0219,-0.02,-0.0127,-0.0113,-0.017,-0.0055,-0.004,0.0006,0.0004,0.0027,0.0032,0.0138,0.0137,0.0137,0.006,0,0,0,0,0,0,-0.0356,-0.035,-0.0354,-0.0303,-0.0291,-0.0266,-0.023,-0.0218,-0.0197,-0.0191,-0.0115,-0.0102,-0.0053,-0.0002,0.0011,0.0012,0.0036,0.0138,0.0137,0.0137,0.0063,0.0057,0.0053,0,0,0,0,0,-0.0358,-0.0369,-0.0355,-0.0349,-0.0299,-0.0267,-0.0258,-0.0214,-0.0197,-0.0194,-0.0142,-0.0104,0.0006,0.0002,0.0017,0.002,0.0138,0.0138,0.0137,0.0065,0.0058,0.0053,0,0,0,0,0,0,-0.0399,-0.0362,-0.0346,-0.0345,-0.0313,-0.0257,-0.0251,-0.0222,-0.0178,-0.0173,-0.0104,-0.0086,-0.0047,-0.0004,-0.0011,0.0052,0.0078,0.0081,0.0017,0.0012,0.0007,-0.0006,0.004,0,0,0,0,0,-0.0412,-0.0412,-0.0368,-0.0369,-0.0356,-0.0306,-0.0288,-0.026,-0.0215,-0.0195,-0.0142,-0.0086,-0.0036,-0.0007,0.0042,0.0076,0.0124,0.0088,0.0083,0.0079,0.0079,0.0146,0.0147,0.0137,0.0137,0.0137,0,0,-0.0428,-0.041,-0.0409,-0.0378,-0.0349,-0.0339,-0.0294,-0.0275,-0.0261,-0.0187,-0.0155,-0.0103,-0.0032,0.0007,0.0029,0.0043,0.0105,0.0078,0.0074,0.0077,0.0146,0.0147,0.0148,0.0136,0.0136,0.0136,0,0,-0.0467,-0.0445,-0.0459,-0.0437,-0.0405,-0.037,-0.0369,-0.0318,-0.029,-0.0255,-0.0197,-0.0148,-0.0076,-0.0022,0.0014,0.0011,0.0073,0.0024,-0.0007,0.0058,0.0059,0.0061,0.0113,0.0121,0.0025,0.0024,0.0024,0,-0.0491,-0.05,-0.0458,-0.0464,-0.0453,-0.039,-0.0399,-0.0359,-0.0299,-0.0276,-0.0257,-0.0142,-0.0087,-0.0026,-0.0028,0.0,0.0042,0.0008,0.0051,0.0054,0.0057,0.011,0.0119,0.0021,0.0021,0.0021,0.0022,0,-0.0538,-0.0542,-0.0548,-0.0534,-0.0514,-0.0512,-0.0456,-0.0431,-0.039,-0.0343,-0.0281,-0.02,-0.0131,-0.0106,-0.0067,-0.0017,0.0007,0.0033,0.0062,0.0053,0.011,0.0121,0.0015,0.0017,0.0018,0.0019,0,0,-0.0596,-0.0587,-0.0587,-0.0597,-0.0553,-0.0545,-0.0519,-0.0475,-0.0459,-0.0385,-0.0351,-0.026,-0.0209,-0.0165,-0.0102,-0.0044,0.001,-0.0004,0.0001,0.004,0.0147,0.0203,0.0221,0.0043,0.0045,0.0046,0.0173,0,-0.0648,-0.0689,-0.0656,-0.068,-0.0696,-0.0629,-0.0617,-0.0565,-0.0502,-0.0451,-0.0347,-0.0291,-0.0231,-0.0201,-0.0132,-0.0021,0.0036,-0.0027,0.0156,0.0162,0.0208,0.0235,0.018,0.0293,0.0184,0.0186,0.0187,0,-0.0703,-0.0726,-0.077,-0.0769,-0.0768,-0.0765,-0.0726,-0.0698,-0.06,-0.0552,-0.046,-0.0375,-0.0266,-0.0224,-0.0033,-0.0076,0.0023,0.0108,0.0116,0.0205,0.0239,0.0288,0.0317,0.0206,0.0204,0.0203,0.0202,0,-0.0781,-0.0799,-0.0842,-0.084,-0.0828,-0.0829,-0.081,-0.0735,-0.0713,-0.0605,-0.0573,-0.0426,-0.035,-0.0202,-0.0014,-0.0025,0.0196,0.0205,0.035,0.0354,0.0364,0.0368,0.0329,0.0328,0.0328,0.0328,0.0327,0,-0.0853,-0.0882,-0.0886,-0.0911,-0.0961,-0.0911,-0.0925,-0.088,-0.0806,-0.0779,-0.063,-0.0572,-0.0341,-0.0181,-0.0025,0.021,0.0196,0.0356,0.0399,0.0335,0.0335,0.0304,0.0299,0.0333,0.0332,0.0331,0.033,0,-0.0929,-0.093,-0.0984,-0.0996,-0.1003,-0.1035,-0.1018,-0.102,-0.0934,-0.0887,-0.0858,-0.0668,-0.0447,-0.0206,0.0053,0.02,0.0409,0.0487,0.0395,0.0427,0.0519,0.0509,0.0659,0.0662,0.0665,0.0667,0.0669,0,-0.0973,-0.1011,-0.106,-0.1105,-0.1114,-0.1145,-0.117,-0.1101,-0.1088,-0.0947,-0.0933,-0.0707,-0.0539,-0.0118,0.0182,0.0493,0.0487,0.0616,0.0592,0.0531,0.0558,0.0543,0.0529,0.0567,0.0567,0.0568,0.0569,0,-0.1056,-0.107,-0.1117,-0.1218,-0.1264,-0.1307,-0.132,-0.1331,-0.1233,-0.1178,-0.1053,-0.0902,-0.0464,-0.0108,0.0324,0.0485,0.0567,0.0643,0.0619,0.0494,0.0455,0.0477,0.0465,0.0576,0.0575,0.0574,0.0574,0.0574,-0.1108,-0.1168,-0.1235,-0.1326,-0.139,-0.1451,-0.1488,-0.1474,-0.1456,-0.1333,-0.1159,-0.0904,-0.0505,0.0094,0.0406,0.0683,0.067,0.0728,0.072,0.0713,0.0683,0.0651,0.0802,0.0802,0.0803,0.0803,0.0804,0,-0.1171,-0.1241,-0.1338,-0.144,-0.1524,-0.1532,-0.1577,-0.1572,-0.1561,-0.1386,-0.122,-0.0801,-0.0359,0.0048,0.0503,0.0787,0.074,0.0816,0.0706,0.0698,0.0691,0.0655,0.077,0.0771,0.0771,0.0772,0,0,-0.1205,-0.131,-0.1364,-0.1525,-0.16,-0.1683,-0.1712,-0.168,-0.1563,-0.1407,-0.1207,-0.0871,-0.0359,-0.0039,0.0328,0.0569,0.055,0.0574,0.0569,0.0388,0.0378,0.0608,0.0541,0,0,0,0,0]}],[{"header":{"parameterUnit":"m.s-1","parameterCategory":2,"la1":30.2991,"la2":30.254,"lo1":-89.0895,"lo2":-89.0444,"dy":0.0017,"dx":0.0017,"nx":28,"ny":28,"refTime":"2023-10-31T03:00:00:Z","depth":"4","parameterNumber":2,"parameterNumberName":"U-component_of_CURRENTS"},"data":[0,0,0,0,0,0,0,0,0,0,0,0,0,0,0,0,0,0,0,0,0,0,0,0,0,0,0,0,0,0,0,0,0,0,0,0,0,0,0,0,0,0,0,0,0,0,0,0,0,0,0,0,0,0,0,0,0,0,-0.1965,-0.1966,0,-0.2029,-0.203,-0.203,-0.2077,-0.2078,-0.2078,-0.2079,-0.215,-0.2152,-0.2153,0,0,0,0,0,0,0,0,0,0,0,0,0,-0.1862,-0.1864,-0.1965,-0.1966,-0.1967,-0.2029,-0.203,-0.2031,-0.2077,-0.2078,-0.2078,-0.2079,-0.215,-0.2151,-0.2153,0,0,0,0,0,0,0,0,0,0,0,0,0,-0.1912,-0.1864,-0.1965,-0.1999,-0.2003,-0.2029,-0.203,-0.2031,-0.2077,-0.2078,-0.2079,-0.2079,-0.2149,-0.2151,-0.2153,-0.2147,0,0,-0.2159,-0.216,0,0,0,0,0,0,0,0,-0.191,-0.1916,-0.1993,-0.1997,-0.2001,-0.2048,-0.202,-0.2071,-0.2077,-0.2046,-0.2079,-0.208,-0.2118,-0.2122,-0.2129,-0.2151,-0.2154,-0.216,-0.2161,-0.2162,-0.2162,0,0,0,0,0,0,0,-0.1906,-0.1913,-0.1988,-0.1994,-0.1999,-0.2005,-0.2013,-0.203,-0.2074,-0.2049,-0.2053,-0.2064,-0.212,-0.2127,-0.2131,-0.2155,-0.216,-0.2161,-0.2163,-0.2163,-0.2276,-0.2278,0,0,0,0,0,0,-0.1903,-0.191,-0.1986,-0.199,-0.196,-0.2007,-0.2015,-0.203,-0.2074,-0.2082,-0.2063,-0.2066,-0.2123,-0.2129,-0.2134,-0.2228,-0.2162,-0.2164,-0.2165,-0.2275,-0.2277,-0.2279,0,0,0,0,0,0,-0.1901,-0.191,-0.1983,-0.1953,-0.1963,-0.2008,-0.2024,-0.2031,-0.2076,-0.2085,-0.2093,-0.2105,-0.2124,-0.2131,-0.2185,-0.2227,-0.2164,-0.2166,-0.2273,-0.2275,-0.2278,-0.2353,0,0,0,0,0,0,-0.1898,-0.1908,-0.1933,-0.1953,-0.1965,-0.2029,-0.2023,-0.2032,-0.208,-0.2085,-0.2123,-0.2128,-0.2125,-0.2182,-0.2187,-0.2229,-0.2168,-0.227,-0.2274,-0.2277,-0.2348,-0.2358,-0.2366,0,0,0,0,0,-0.1894,-0.1921,-0.1934,-0.1944,-0.1993,-0.2031,-0.2038,-0.2069,-0.2082,-0.2111,-0.2138,-0.2129,-0.2207,-0.2186,-0.2191,-0.2234,-0.2269,-0.2273,-0.2277,-0.2344,-0.2356,-0.2366,0,0,0,0,0,0,-0.1891,-0.1929,-0.1944,-0.1983,-0.2019,-0.204,-0.2073,-0.2091,-0.2134,-0.2148,-0.2152,-0.216,-0.2224,-0.2218,-0.2194,-0.2277,-0.2237,-0.2242,-0.2286,-0.2297,-0.2306,-0.2306,-0.2169,0,0,0,0,0,-0.1901,-0.1933,-0.1967,-0.2002,-0.2024,-0.2055,-0.208,-0.2103,-0.2135,-0.2157,-0.2183,-0.221,-0.2237,-0.226,-0.2282,-0.2327,-0.231,-0.2358,-0.2367,-0.2374,-0.2379,-0.2383,-0.2392,-0.2292,-0.2292,-0.2292,0,0,-0.1909,-0.1935,-0.1954,-0.2004,-0.2033,-0.2075,-0.2073,-0.2125,-0.2168,-0.2156,-0.2232,-0.2247,-0.2257,-0.231,-0.2338,-0.2316,-0.2397,-0.238,-0.2386,-0.2386,-0.2388,-0.2398,-0.2406,-0.2295,-0.2294,-0.2294,0,0,-0.193,-0.1967,-0.1999,-0.2036,-0.2091,-0.2112,-0.2137,-0.2185,-0.2221,-0.2282,-0.2287,-0.2329,-0.2375,-0.2389,-0.2399,-0.247,-0.2445,-0.2484,-0.2532,-0.2537,-0.2545,-0.2551,-0.2551,-0.2557,-0.2488,-0.2488,-0.2488,0,-0.194,-0.1983,-0.2016,-0.2058,-0.2094,-0.2135,-0.2179,-0.2222,-0.2284,-0.2315,-0.2322,-0.2394,-0.2409,-0.246,-0.249,-0.2491,-0.2486,-0.2489,-0.2548,-0.2554,-0.2559,-0.2557,-0.2562,-0.2492,-0.2492,-0.2491,-0.2491,0,-0.1975,-0.2026,-0.2052,-0.2116,-0.2161,-0.2208,-0.2266,-0.2323,-0.2368,-0.2399,-0.2474,-0.2493,-0.2529,-0.2548,-0.2545,-0.2599,-0.2581,-0.2558,-0.2517,-0.2574,-0.2568,-0.2572,-0.2498,-0.2497,-0.2496,-0.2494,0,0,-0.1947,-0.2055,-0.2066,-0.2111,-0.2197,-0.2233,-0.2316,-0.2388,-0.2445,-0.2505,-0.2566,-0.2619,-0.2627,-0.2639,-0.2642,-0.2656,-0.2699,-0.2634,-0.2632,-0.2628,-0.2712,-0.2545,-0.2533,-0.2686,-0.2688,-0.2688,-0.2694,0,-0.1964,-0.2047,-0.2099,-0.2187,-0.2233,-0.2304,-0.2374,-0.245,-0.2513,-0.2585,-0.2617,-0.2674,-0.2662,-0.2687,-0.2702,-0.2703,-0.2713,-0.2699,-0.2662,-0.266,-0.25,-0.2533,-0.2692,-0.2697,-0.2698,-0.2699,-0.2699,0,-0.1966,-0.2027,-0.2114,-0.2225,-0.2254,-0.2316,-0.2429,-0.25,-0.2603,-0.265,-0.2706,-0.2733,-0.2782,-0.2755,-0.2776,-0.2769,-0.2751,-0.274,-0.274,-0.2557,-0.2501,-0.2627,-0.2706,-0.2706,-0.2705,-0.2705,-0.2704,0,-0.1908,-0.203,-0.21,-0.2141,-0.2275,-0.2333,-0.2408,-0.2519,-0.2582,-0.2692,-0.2736,-0.2793,-0.2824,-0.2819,-0.2804,-0.2798,-0.2809,-0.2788,-0.2618,-0.2607,-0.2723,-0.2715,-0.2791,-0.2791,-0.2791,-0.2791,-0.2791,0,-0.188,-0.1941,-0.2087,-0.2127,-0.2215,-0.2319,-0.2417,-0.2498,-0.2613,-0.2667,-0.2762,-0.2789,-0.2842,-0.2853,-0.2827,-0.2727,-0.282,-0.2626,-0.2593,-0.2756,-0.2752,-0.2726,-0.2718,-0.2791,-0.2791,-0.2791,-0.2791,0,-0.1794,-0.1896,-0.1983,-0.2137,-0.219,-0.2251,-0.2407,-0.2461,-0.2591,-0.2663,-0.2697,-0.2801,-0.2804,-0.2831,-0.2826,-0.2731,-0.267,-0.2612,-0.2793,-0.2771,-0.2464,-0.2461,-0.2419,-0.2413,-0.2408,-0.2404,-0.2401,0,-0.1753,-0.1793,-0.1964,-0.2011,-0.2084,-0.2199,-0.2261,-0.2421,-0.2471,-0.2632,-0.2636,-0.2713,-0.275,-0.2613,-0.266,-0.2596,-0.256,-0.2514,-0.248,-0.2452,-0.2426,-0.243,-0.2434,-0.2393,-0.2391,-0.239,-0.2389,0,-0.1661,-0.1736,-0.1803,-0.1906,-0.1987,-0.2071,-0.2176,-0.2196,-0.2358,-0.2504,-0.2501,-0.2498,-0.2505,-0.2491,-0.2461,-0.2413,-0.2536,-0.2461,-0.2471,-0.2439,-0.2419,-0.2399,-0.2408,-0.2371,-0.2374,-0.2376,-0.2377,0,-0.1578,-0.1601,-0.1697,-0.1764,-0.186,-0.1893,-0.1981,-0.2033,-0.2109,-0.229,-0.228,-0.2365,-0.2476,-0.2395,-0.2364,-0.2308,-0.2268,-0.2181,-0.2205,-0.2225,-0.2155,-0.2102,-0.1924,0,0,0,0,0,-0.1485,-0.1493,-0.1545,-0.1611,-0.1694,-0.1754,-0.1893,-0.1983,-0.2142,-0.2079,-0.2177,-0.2171,-0.214,-0.2193,-0.2089,-0.2265,-0.2271,-0.2135,-0.2183,-0.2275,-0.2295,-0.2229,0,0,0,0,0,0,-0.1422,-0.1467,-0.1489,-0.1456,-0.1466,-0.1547,-0.1624,-0.1743,-0.1731,-0.19,-0.1898,-0.2026,-0.2032,-0.2157,-0.2039,-0.2051,-0.2033,-0.2202,-0.2196,-0.2263,-0.2282,-0.2298,-0.2237,0,0,0,0,0]},{"header":{"parameterUnit":"m.s-1","parameterCategory":2,"la1":30.2991,"la2":30.254,"lo1":-89.0895,"lo2":-89.0444,"dy":0.0017,"dx":0.0017,"nx":28,"ny":28,"refTime":"2023-10-31T03:00:00:Z","depth":"4","parameterNumber":3,"parameterNumberName":"V-component_of_CURRENTS"},"data":[0,0,0,0,0,0,0,0,0,0,0,0,0,0,0,0,0,0,0,0,0,0,0,0,0,0,0,0,0,0,0,0,0,0,0,0,0,0,0,0,0,0,0,0,0,0,0,0,0,0,0,0,0,0,0,0,0,0,-0.015,-0.015,0,-0.0088,-0.0087,-0.0086,-0.0042,-0.0042,-0.0042,-0.0042,0.0067,0.007,0.0073,0,0,0,0,0,0,0,0,0,0,0,0,0,-0.018,-0.0179,-0.015,-0.015,-0.0149,-0.0088,-0.0087,-0.0086,-0.0042,-0.0042,-0.0042,-0.0041,0.0066,0.007,0.0073,0,0,0,0,0,0,0,0,0,0,0,0,0,-0.0146,-0.0179,-0.015,-0.0121,-0.0118,-0.0089,-0.0087,-0.0086,-0.0042,-0.0042,-0.0042,-0.0041,0.0065,0.0069,0.0073,0.0092,0,0,0.0086,0.0088,0,0,0,0,0,0,0,0,-0.0148,-0.0144,-0.0126,-0.0123,-0.0119,-0.0074,-0.0058,-0.0025,-0.0042,-0.0069,-0.0042,-0.0041,0.0023,0.0031,0.0043,0.0097,0.0102,0.0086,0.0089,0.009,0.0091,0,0,0,0,0,0,0,-0.015,-0.0147,-0.0124,-0.0125,-0.0121,-0.0094,-0.0089,-0.0051,-0.0023,-0.0067,-0.0064,-0.006,0.0025,0.0039,0.0046,0.0104,0.0086,0.009,0.0092,0.0094,0.0183,0.0183,0,0,0,0,0,0,-0.0164,-0.0149,-0.0126,-0.0122,-0.0135,-0.0094,-0.0088,-0.0088,-0.0025,-0.0016,-0.006,-0.0058,0.0032,0.0042,0.005,0.0071,0.009,0.0094,0.0096,0.0183,0.0183,0.0183,0,0,0,0,0,0,-0.0165,-0.0163,-0.0128,-0.0135,-0.0129,-0.0094,-0.0093,-0.0086,-0.0075,-0.002,-0.001,-0.0057,0.0033,0.0045,0.0078,0.0076,0.0096,0.01,0.0183,0.0183,0.0183,0.0116,0,0,0,0,0,0,-0.0166,-0.0164,-0.0171,-0.0137,-0.0129,-0.012,-0.0094,-0.0086,-0.0074,-0.0071,-0.0014,-0.0003,0.0034,0.0072,0.0082,0.0082,0.0103,0.0183,0.0183,0.0183,0.0118,0.0113,0.0109,0,0,0,0,0,-0.0168,-0.018,-0.0172,-0.0169,-0.0139,-0.012,-0.0114,-0.0086,-0.0074,-0.0074,-0.0035,-0.0005,0.0079,0.0075,0.0087,0.0088,0.0183,0.0183,0.0183,0.012,0.0114,0.0109,0,0,0,0,0,0,-0.0195,-0.0176,-0.0166,-0.0171,-0.0152,-0.0114,-0.0113,-0.0093,-0.0062,-0.006,-0.0006,0.0007,0.0036,0.0071,0.0065,0.0114,0.0136,0.0138,0.0084,0.0079,0.0075,0.0063,0.0106,0,0,0,0,0,-0.0206,-0.0212,-0.0184,-0.019,-0.0183,-0.015,-0.014,-0.0121,-0.009,-0.0076,-0.0037,0.0007,0.0046,0.0068,0.0105,0.0132,0.0172,0.0141,0.0136,0.0132,0.0132,0.0189,0.019,0.0182,0.0182,0.0182,0,0,-0.0219,-0.021,-0.0213,-0.0197,-0.018,-0.0176,-0.0143,-0.0134,-0.0128,-0.0068,-0.005,-0.0008,0.0049,0.0077,0.0093,0.0105,0.0154,0.0132,0.0128,0.013,0.0189,0.019,0.0191,0.0182,0.0182,0.0182,0,0,-0.025,-0.024,-0.0255,-0.0243,-0.0225,-0.0202,-0.0204,-0.017,-0.0152,-0.013,-0.0085,-0.0046,0.0008,0.0051,0.0079,0.0075,0.0127,0.0086,0.0058,0.0114,0.0115,0.0116,0.0157,0.0163,0.0086,0.0086,0.0086,0,-0.0268,-0.0281,-0.0255,-0.0265,-0.0262,-0.0218,-0.0231,-0.0204,-0.0164,-0.0149,-0.0134,-0.0046,-0.0003,0.0045,0.0042,0.0065,0.0101,0.0071,0.0107,0.011,0.0112,0.0155,0.0162,0.0082,0.0083,0.0083,0.0083,0,-0.0306,-0.0317,-0.0324,-0.0322,-0.0313,-0.0317,-0.0281,-0.0267,-0.0241,-0.0208,-0.0162,-0.0098,-0.0044,-0.0024,0.0007,0.0049,0.0068,0.0092,0.0117,0.0109,0.0154,0.0163,0.0078,0.0079,0.008,0.0081,0,0,-0.0346,-0.0353,-0.0356,-0.037,-0.0347,-0.0346,-0.0334,-0.0309,-0.0302,-0.0248,-0.0227,-0.0154,-0.0113,-0.0078,-0.0025,0.0024,0.0068,0.0059,0.0063,0.0093,0.0182,0.0171,0.018,0.0098,0.01,0.0101,0.0202,0,-0.0385,-0.0427,-0.041,-0.044,-0.0458,-0.0417,-0.0416,-0.0384,-0.0342,-0.0309,-0.0226,-0.0186,-0.0134,-0.0111,-0.0051,0.0041,0.0089,0.0038,0.0192,0.0196,0.0183,0.019,0.0105,0.0209,0.0211,0.0212,0.0213,0,-0.0424,-0.0451,-0.0496,-0.0513,-0.0516,-0.0525,-0.0511,-0.0497,-0.0431,-0.0399,-0.0328,-0.026,-0.0172,-0.0134,0.0027,-0.0008,0.0076,0.0149,0.0155,0.0176,0.0202,0.0224,0.023,0.0229,0.0227,0.0226,0.0225,0,-0.0473,-0.0505,-0.0549,-0.0554,-0.0565,-0.0578,-0.0575,-0.0531,-0.0522,-0.0447,-0.0427,-0.0308,-0.0248,-0.012,0.0036,0.0031,0.0212,0.0226,0.0298,0.0298,0.0307,0.0304,0.0332,0.0332,0.0331,0.0331,0.0331,0,-0.0516,-0.0551,-0.0582,-0.0608,-0.0664,-0.0641,-0.0672,-0.0646,-0.0604,-0.0591,-0.0477,-0.0433,-0.0241,-0.0111,0.0023,0.0191,0.0208,0.0295,0.0326,0.0274,0.0267,0.0313,0.0309,0.0335,0.0334,0.0333,0.0333,0,-0.0555,-0.0575,-0.0633,-0.0673,-0.0691,-0.0729,-0.075,-0.0762,-0.071,-0.0685,-0.0665,-0.0517,-0.0347,-0.0152,0.0066,0.0168,0.033,0.0382,0.0307,0.0332,0.0379,0.0371,0.0464,0.0465,0.0465,0.0466,0.0466,0,-0.0576,-0.0612,-0.0691,-0.0741,-0.0765,-0.0815,-0.0852,-0.0825,-0.0823,-0.0735,-0.0722,-0.056,-0.0443,-0.0141,0.006,0.0321,0.0354,0.043,0.0408,0.0373,0.0394,0.0385,0.0377,0.0467,0.0467,0.0467,0.0467,0,-0.0616,-0.0649,-0.07,-0.0808,-0.087,-0.0928,-0.0964,-0.0971,-0.0921,-0.088,-0.0764,-0.0594,-0.0398,-0.0154,0.0057,0.0241,0.0378,0.0435,0.0435,0.0415,0.0377,0.0396,0.0387,0.0469,0.0468,0.0468,0.0468,0,-0.0642,-0.0694,-0.077,-0.0856,-0.0947,-0.1007,-0.1023,-0.1006,-0.0991,-0.088,-0.0845,-0.0619,-0.0479,-0.0196,-0.0004,0.0183,0.0221,0.0265,0.0274,0.0275,0.0191,0.0113,0.0152,0,0,0,0,0,-0.066,-0.072,-0.0811,-0.0905,-0.0996,-0.1042,-0.1081,-0.1075,-0.1029,-0.0961,-0.0896,-0.0712,-0.0405,-0.0266,-0.0083,-0.0004,0.0246,0.0214,0.0298,0.0477,0.0475,0.0409,0,0,0,0,0,0,-0.0674,-0.0762,-0.081,-0.0924,-0.0994,-0.1081,-0.111,-0.1082,-0.1028,-0.0958,-0.0794,-0.0686,-0.0387,-0.0511,-0.0085,-0.0025,0.0048,0.0367,0.0371,0.0478,0.0477,0.0475,0.0406,0,0,0,0,0]}]]